QPF
0.07 0.08 0.11 0.09 0.05 0.05 0.04 0.04 0.03 0.03 0.03 0.02 0.03 0.03 0.03 0.03 0.04 0.05 0.07 0.07 0.06 0.06 0.05 0.07 0.08 0.10 0.13 0.13 0.12 0.11 0.10 0.09 0.08 0.07 0.04 0.03 0.02 0.01 0.01 0.00 0.01 0.01 0.01
0.06 0.05 0.05 0.04 0.04 0.04 0.04 0.03 0.03 0.02 0.02 0.03 0.03 0.03 0.03 0.04 0.05 0.05 0.06 0.06 0.06 0.06 0.05 0.04 0.03 0.04 0.05 0.06 0.08 0.08 0.07 0.06 0.07 0.07 0.06 0.04 0.02 0.01 0.01 0.00 0.00 0.01 0.01
0.03 0.03 0.03 0.02 0.03 0.04 0.04 0.04 0.03 0.02 0.02 0.03 0.03 0.03 0.04 0.05 0.06 0.07 0.07 0.07 0.07 0.07 0.07 0.07 0.05 0.05 0.06 0.06 0.07 0.07 0.06 0.05 0.06 0.06 0.04 0.02 0.02 0.01 0.01 0.01 0.01 0.02 0.01
0.01 0.01 0.01 0.01 0.01 0.01 0.02 0.03 0.03 0.03 0.03 0.03 0.03 0.03 0.04 0.05 0.06 0.08 0.09 0.10 0.10 0.10 0.09 0.08 0.06 0.06 0.08 0.09 0.09 0.09 0.07 0.05 0.04 0.04 0.03 0.02 0.02 0.01 0.02 0.03 0.03 0.05 0.04
0.00 0.00 0.00 0.00 0.00 0.00 0.00 0.01 0.01 0.01 0.01 0.02 0.01 0.01 0.02 0.03 0.04 0.06 0.07 0.08 0.11 0.13 0.12 0.10 0.09 0.09 0.08 0.08 0.09 0.09 0.07 0.05 0.04 0.03 0.02 0.02 0.02 0.02 0.03 0.04 0.04 0.04 0.03
0.00 0.00 0.00 0.00 0.00 0.00 0.00 0.00 0.00 0.00 0.00 0.00 0.01 0.01 0.01 0.01 0.03 0.05 0.05 0.05 0.08 0.12 0.15 0.14 0.12 0.13 0.11 0.08 0.06 0.06 0.06 0.05 0.05 0.03 0.02 0.02 0.02 0.01 0.02 0.03 0.03 0.04 0.02
0.00 0.00 0.00 0.00 0.00 0.00 0.00 0.00 0.00 0.00 0.00 0.00 0.00 0.00 0.01 0.01 0.02 0.03 0.04 0.04 0.06 0.07 0.10 0.14 0.15 0.13 0.15 0.15 0.08 0.05 0.03 0.03 0.03 0.03 0.02 0.03 0.02 0.01 0.01 0.02 0.03 0.05 0.02
0.00 0.00 0.00 0.00 0.00 0.00 0.00 0.00 0.00 0.00 0.00 0.00 0.00 0.00 0.00 0.01 0.02 0.02 0.02 0.03 0.04 0.05 0.07 0.11 0.14 0.15 0.15 0.14 0.09 0.09 0.05 0.02 0.02 0.01 0.02 0.02 0.01 0.01 0.02 0.02 0.02 0.01 0.01
0.00 0.00 0.00 0.00 0.00 0.00 0.00 0.00 0.00 0.00 0.00 0.00 0.00 0.00 0.00 0.00 0.01 0.01 0.01 0.01 0.02 0.03 0.05 0.08 0.10 0.10 0.12 0.13 0.13 0.11 0.08 0.03 0.02 0.02 0.02 0.01 0.01 0.01 0.01 0.01 0.01 0.01 0.01
0.00 0.00 0.00 0.00 0.00 0.00 0.00 0.00 0.00 0.00 0.00 0.00 0.00 0.00 0.00 0.00 0.01 0.01 0.01 0.01 0.01 0.02 0.03 0.05 0.08 0.08 0.09 0.09 0.11 0.12 0.11 0.04 0.01 0.01 0.01 0.00 0.00 0.01 0.01 0.01 0.02 0.02 0.01
0.00 0.00 0.00 0.00 0.00 0.00 0.00 0.00 0.00 0.00 0.00 0.00 0.00 0.00 0.00 0.00 0.00 0.01 0.01 0.01 0.01 0.02 0.04 0.05 0.04 0.07 0.07 0.06 0.08 0.09 0.10 0.06 0.02 0.01 0.01 0.01 0.00 0.00 0.01 0.01 0.01 0.02 0.02
0.00 0.00 0.00 0.00 0.00 0.00 0.00 0.00 0.00 0.00 0.00 0.00 0.00 0.00 0.00 0.00 0.00 0.00 0.00 0.01 0.01 0.01 0.03 0.05 0.05 0.05 0.05 0.05 0.05 0.06 0.08 0.08 0.03 0.02 0.02 0.01 0.01 0.00 0.00 0.00 0.00 0.00 0.00
0.00 0.00 0.00 0.00 0.00 0.00 0.00 0.00 0.00 0.00 0.00 0.00 0.00 0.00 0.00 0.00 0.00 0.00 0.00 0.00 0.01 0.01 0.02 0.03 0.04 0.03 0.03 0.03 0.05 0.08 0.07 0.06 0.05 0.04 0.03 0.02 0.01 0.01 0.00 0.00 0.00 0.00 0.00
0.00 0.00 0.00 0.00 0.00 0.00 0.00 0.00 0.00 0.00 0.00 0.00 0.00 0.00 0.00 0.00 0.00 0.00 0.01 0.01 0.00 0.01 0.01 0.02 0.03 0.04 0.04 0.03 0.03 0.05 0.06 0.07 0.08 0.05 0.03 0.01 0.01 0.01 0.00 0.00 0.00 0.00 0.00
0.00 0.00 0.00 0.00 0.00 0.00 0.00 0.00 0.00 0.00 0.00 0.00 0.00 0.00 0.00 0.00 0.00 0.00 0.00 0.00 0.00 0.00 0.01 0.01 0.02 0.03 0.04 0.03 0.03 0.03 0.02 0.03 0.05 0.04 0.03 0.01 0.02 0.01 0.01 0.00 0.00 0.00 0.00
0.00 0.00 0.00 0.00 0.00 0.00 0.00 0.00 0.00 0.00 0.00 0.00 0.00 0.00 0.00 0.00 0.00 0.00 0.00 0.00 0.00 0.00 0.01 0.01 0.01 0.02 0.03 0.04 0.04 0.03 0.02 0.02 0.02 0.03 0.02 0.02 0.02 0.01 0.00 0.00 0.00 0.00 0.00
0.00 0.00 0.00 0.00 0.00 0.00 0.00 0.00 0.00 0.00 0.00 0.00 0.00 0.00 0.00 0.00 0.00 0.00 0.00 0.00 0.00 0.00 0.00 0.00 0.00 0.00 0.01 0.02 0.02 0.02 0.02 0.01 0.01 0.01 0.01 0.02 0.01 0.01 0.00 0.00 0.00 0.00 0.00
0.00 0.00 0.00 0.00 0.00 0.00 0.00 0.00 0.00 0.00 0.00 0.00 0.00 0.00 0.00 0.00 0.00 0.00 0.00 0.00 0.00 0.00 0.00 0.00 0.00 0.00 0.00 0.00 0.00 0.00 0.01 0.00 0.01 0.01 0.01 0.01 0.01 0.00 0.00 0.00 0.00 0.00 0.00
0.00 0.00 0.00 0.00 0.00 0.00 0.00 0.00 0.00 0.00 0.00 0.00 0.00 0.00 0.00 0.00 0.00 0.00 0.00 0.00 0.00 0.00 0.00 0.00 0.00 0.00 0.00 0.00 0.00 0.00 0.00 0.00 0.01 0.01 0.00 0.00 0.00 0.00 0.00 0.00 0.00 0.00 0.00
0.00 0.00 0.00 0.00 0.00 0.00 0.00 0.00 0.00 0.00 0.00 0.00 0.00 0.00 0.00 0.00 0.00 0.00 0.00 0.00 0.00 0.00 0.00 0.00 0.00 0.00 0.00 0.00 0.00 0.00 0.00 0.00 0.00 0.00 0.00 0.00 0.00 0.00 0.00 0.00 0.00 0.00 0.00
0.00 0.00 0.00 0.00 0.00 0.00 0.00 0.00 0.00 0.00 0.00 0.00 0.00 0.00 0.00 0.00 0.00 0.00 0.00 0.00 0.00 0.00 0.00 0.00 0.00 0.00 0.00 0.00 0.00 0.00 0.00 0.00 0.00 0.00 0.00 0.00 0.00 0.00 0.00 0.00 0.00 0.00 0.00
0.00 0.00 0.00 0.00 0.00 0.00 0.00 0.00 0.00 0.00 0.00 0.00 0.00 0.00 0.00 0.00 0.00 0.00 0.00 0.00 0.00 0.00 0.00 0.00 0.00 0.00 0.00 0.00 0.00 0.00 0.00 0.00 0.00 0.00 0.00 0.00 0.00 0.00 0.00 0.00 0.00 0.00 0.00
0.00 0.00 0.00 0.00 0.00 0.00 0.00 0.00 0.00 0.00 0.00 0.00 0.00 0.00 0.00 0.00 0.00 0.00 0.00 0.00 0.00 0.00 0.00 0.00 0.00 0.00 0.00 0.00 0.00 0.00 0.00 0.00 0.00 0.00 0.00 0.00 0.00 0.00 0.00 0.00 0.00 0.00 0.00
0.00 0.00 0.00 0.00 0.00 0.00 0.00 0.00 0.00 0.00 0.00 0.00 0.00 0.00 0.00 0.00 0.00 0.00 0.00 0.00 0.00 0.00 0.00 0.00 0.00 0.00 0.00 0.00 0.00 0.00 0.00 0.00 0.00 0.00 0.00 0.00 0.00 0.00 0.00 0.00 0.00 0.00 0.00
0.00 0.00 0.00 0.00 0.00 0.00 0.00 0.00 0.00 0.00 0.00 0.00 0.00 0.00 0.00 0.00 0.00 0.00 0.00 0.00 0.00 0.00 0.00 0.00 0.00 0.00 0.00 0.00 0.00 0.00 0.00 0.00 0.00 0.00 0.00 0.00 0.00 0.00 0.00 0.00 0.00 0.00 0.00
0.00 0.00 0.00 0.00 0.00 0.00 0.00 0.00 0.00 0.00 0.00 0.00 0.00 0.00 0.00 0.00 0.00 0.00 0.00 0.00 0.00 0.00 0.00 0.00 0.00 0.00 0.00 0.00 0.00 0.00 0.00 0.00 0.00 0.00 0.00 0.00 0.00 0.00 0.00 0.00 0.00 0.00 0.00
MSLP
1017.50 1017.08 1016.67 1016.29 1015.93 1015.60 1015.29 1015.00 1014.72 1014.45 1014.19 1013.94 1013.70 1013.48 1013.28 1013.12 1013.01 1012.95 1012.94 1013.01 1013.14 1013.33 1013.59 1013.90 1014.24 1014.61 1014.98 1015.35 1015.68 1015.97 1016.22 1016.40 1016.53 1016.61 1016.65 1016.67 1016.68 1016.70 1016.75 1016.82 1016.93 1017.08 1017.26
1017.62 1017.23 1016.86 1016.53 1016.22 1015.94 1015.68 1015.44 1015.20 1014.97 1014.73 1014.49 1014.25 1014.02 1013.80 1013.62 1013.47 1013.37 1013.32 1013.33 1013.40 1013.52 1013.68 1013.89 1014.13 1014.39 1014.67 1014.96 1015.23 1015.49 1015.73 1015.93 1016.10 1016.23 1016.33 1016.41 1016.48 1016.56 1016.64 1016.75 1016.89 1017.06 1017.26
1017.76 1017.41 1017.07 1016.77 1016.49 1016.25 1016.03 1015.83 1015.63 1015.42 1015.21 1014.98 1014.75 1014.52 1014.31 1014.12 1013.96 1013.85 1013.78 1013.75 1013.76 1013.82 1013.90 1014.01 1014.14 1014.29 1014.47 1014.65 1014.84 1015.04 1015.24 1015.44 1015.62 1015.79 1015.95 1016.09 1016.23 1016.37 1016.52 1016.69 1016.88 1017.10 1017.34
1017.94 1017.61 1017.31 1017.03 1016.79 1016.57 1016.38 1016.19 1016.01 1015.83 1015.63 1015.42 1015.20 1014.98 1014.78 1014.59 1014.44 1014.32 1014.23 1014.19 1014.16 1014.16 1014.17 1014.20 1014.24 1014.29 1014.35 1014.44 1014.55 1014.68 1014.83 1015.00 1015.18 1015.37 1015.56 1015.77 1015.97 1016.18 1016.41 1016.65 1016.90 1017.18 1017.47
1018.14 1017.86 1017.59 1017.34 1017.12 1016.92 1016.74 1016.57 1016.40 1016.22 1016.03 1015.83 1015.62 1015.40 1015.20 1015.02 1014.87 1014.74 1014.65 1014.58 1014.53 1014.49 1014.45 1014.41 1014.38 1014.35 1014.33 1014.33 1014.36 1014.43 1014.53 1014.67 1014.83 1015.03 1015.25 1015.49 1015.75 1016.02 1016.31 1016.62 1016.94 1017.28 1017.63
1018.35 1018.13 1017.90 1017.69 1017.50 1017.32 1017.15 1016.98 1016.81 1016.63 1016.44 1016.23 1016.02 1015.80 1015.59 1015.40 1015.23 1015.10 1014.99 1014.90 1014.82 1014.75 1014.68 1014.60 1014.52 1014.44 1014.37 1014.32 1014.30 1014.32 1014.38 1014.48 1014.63 1014.83 1015.06 1015.32 1015.61 1015.92 1016.26 1016.62 1016.99 1017.38 1017.77
1018.55 1018.40 1018.23 1018.07 1017.91 1017.75 1017.60 1017.44 1017.27 1017.09 1016.88 1016.66 1016.43 1016.19 1015.95 1015.74 1015.54 1015.38 1015.24 1015.13 1015.03 1014.94 1014.85 1014.75 1014.65 1014.55 1014.46 1014.39 1014.34 1014.34 1014.38 1014.47 1014.60 1014.79 1015.02 1015.29 1015.59 1015.92 1016.28 1016.66 1017.06 1017.47 1017.89
1018.74 1018.65 1018.56 1018.45 1018.34 1018.22 1018.09 1017.94 1017.78 1017.58 1017.36 1017.12 1016.85 1016.58 1016.31 1016.05 1015.81 1015.61 1015.43 1015.29 1015.16 1015.05 1014.95 1014.86 1014.76 1014.67 1014.59 1014.53 1014.50 1014.49 1014.54 1014.62 1014.75 1014.93 1015.15 1015.41 1015.71 1016.03 1016.38 1016.76 1017.15 1017.56 1017.98
1018.89 1018.88 1018.85 1018.81 1018.75 1018.67 1018.58 1018.45 1018.29 1018.09 1017.86 1017.59 1017.29 1016.98 1016.66 1016.35 1016.07 1015.81 1015.59 1015.41 1015.26 1015.13 1015.03 1014.95 1014.87 1014.81 1014.76 1014.73 1014.73 1014.76 1014.82 1014.92 1015.06 1015.23 1015.44 1015.69 1015.96 1016.26 1016.58 1016.92 1017.29 1017.67 1018.06
1019.03 1019.07 1019.10 1019.12 1019.11 1019.08 1019.02 1018.92 1018.78 1018.58 1018.34 1018.06 1017.73 1017.38 1017.02 1016.67 1016.33 1016.02 1015.76 1015.54 1015.36 1015.22 1015.12 1015.05 1015.00 1014.97 1014.97 1014.99 1015.03 1015.10 1015.19 1015.32 1015.47 1015.65 1015.86 1016.08 1016.33 1016.59 1016.87 1017.16 1017.48 1017.81 1018.16
1019.14 1019.22 1019.30 1019.36 1019.40 1019.41 1019.39 1019.32 1019.19 1019.02 1018.78 1018.49 1018.16 1017.79 1017.39 1017.00 1016.63 1016.28 1015.97 1015.71 1015.51 1015.36 1015.25 1015.19 1015.16 1015.17 1015.21 1015.27 1015.36 1015.48 1015.62 1015.77 1015.95 1016.14 1016.34 1016.55 1016.77 1016.99 1017.23 1017.47 1017.73 1018.01 1018.30
1019.23 1019.32 1019.42 1019.51 1019.59 1019.63 1019.64 1019.61 1019.51 1019.36 1019.15 1018.87 1018.54 1018.17 1017.77 1017.36 1016.97 1016.59 1016.26 1015.97 1015.75 1015.57 1015.46 1015.40 1015.38 1015.41 1015.47 1015.58 1015.71 1015.86 1016.03 1016.23 1016.43 1016.63 1016.84 1017.04 1017.24 1017.44 1017.63 1017.83 1018.04 1018.27 1018.51
1019.28 1019.37 1019.47 1019.57 1019.67 1019.73 1019.77 1019.77 1019.71 1019.60 1019.42 1019.18 1018.88 1018.53 1018.15 1017.75 1017.35 1016.97 1016.63 1016.33 1016.08 1015.89 1015.76 1015.68 1015.66 1015.69 1015.77 1015.88 1016.04 1016.22 1016.42 1016.64 1016.86 1017.08 1017.30 1017.51 1017.70 1017.88 1018.06 1018.22 1018.39 1018.58 1018.78
1019.29 1019.36 1019.44 1019.54 1019.63 1019.72 1019.78 1019.81 1019.79 1019.72 1019.59 1019.40 1019.15 1018.85 1018.51 1018.15 1017.78 1017.41 1017.07 1016.77 1016.50 1016.30 1016.14 1016.04 1016.00 1016.02 1016.08 1016.19 1016.35 1016.53 1016.75 1016.98 1017.22 1017.46 1017.69 1017.91 1018.11 1018.29 1018.45 1018.61 1018.76 1018.92 1019.10
1019.24 1019.28 1019.34 1019.42 1019.50 1019.59 1019.67 1019.73 1019.75 1019.73 1019.66 1019.54 1019.36 1019.12 1018.85 1018.54 1018.22 1017.89 1017.57 1017.27 1017.00 1016.78 1016.60 1016.47 1016.40 1016.38 1016.41 1016.50 1016.63 1016.81 1017.02 1017.25 1017.50 1017.75 1018.00 1018.23 1018.44 1018.63 1018.80 1018.96 1019.12 1019.27 1019.44
1019.12 1019.13 1019.16 1019.21 1019.29 1019.37 1019.46 1019.55 1019.61 1019.64 1019.64 1019.59 1019.48 1019.33 1019.13 1018.90 1018.63 1018.35 1018.07 1017.79 1017.53 1017.30 1017.10 1016.95 1016.83 1016.77 1016.77 1016.82 1016.92 1017.06 1017.25 1017.47 1017.72 1017.97 1018.22 1018.47 1018.69 1018.90 1019.09 1019.27 1019.43 1019.60 1019.78
1018.94 1018.92 1018.92 1018.95 1019.01 1019.09 1019.19 1019.29 1019.39 1019.47 1019.52 1019.54 1019.51 1019.44 1019.33 1019.17 1018.98 1018.76 1018.53 1018.28 1018.04 1017.82 1017.61 1017.43 1017.29 1017.19 1017.14 1017.15 1017.21 1017.32 1017.48 1017.67 1017.90 1018.14 1018.39 1018.64 1018.88 1019.10 1019.31 1019.51 1019.69 1019.88 1020.07
1018.70 1018.66 1018.64 1018.65 1018.69 1018.76 1018.86 1018.97 1019.09 1019.21 1019.31 1019.39 1019.44 1019.44 1019.40 1019.33 1019.21 1019.06 1018.89 1018.69 1018.48 1018.28 1018.08 1017.90 1017.74 1017.62 1017.54 1017.51 1017.54 1017.61 1017.73 1017.89 1018.09 1018.31 1018.55 1018.79 1019.03 1019.26 1019.48 1019.69 1019.89 1020.10 1020.31
1018.44 1018.38 1018.35 1018.33 1018.35 1018.41 1018.50 1018.61 1018.74 1018.88 1019.02 1019.14 1019.24 1019.31 1019.34 1019.33 1019.29 1019.21 1019.10 1018.96 1018.81 1018.65 1018.48 1018.32 1018.17 1018.05 1017.96 1017.91 1017.90 1017.94 1018.03 1018.15 1018.32 1018.51 1018.72 1018.94 1019.17 1019.39 1019.61 1019.83 1020.04 1020.26 1020.48
1018.16 1018.10 1018.05 1018.02 1018.02 1018.06 1018.12 1018.23 1018.35 1018.49 1018.64 1018.79 1018.92 1019.03 1019.11 1019.16 1019.19 1019.18 1019.14 1019.07 1018.99 1018.89 1018.77 1018.66 1018.55 1018.45 1018.37 1018.32 1018.30 1018.32 1018.38 1018.47 1018.60 1018.75 1018.92 1019.11 1019.31 1019.51 1019.72 1019.93 1020.14 1020.36 1020.58
1017.89 1017.83 1017.77 1017.72 1017.70 1017.71 1017.75 1017.83 1017.93 1018.06 1018.20 1018.34 1018.48 1018.61 1018.73 1018.83 1018.91 1018.96 1019.00 1019.01 1019.00 1018.98 1018.94 1018.90 1018.85 1018.80 1018.76 1018.73 1018.72 1018.73 1018.77 1018.83 1018.92 1019.03 1019.16 1019.31 1019.47 1019.64 1019.82 1020.01 1020.21 1020.41 1020.63
1017.63 1017.57 1017.51 1017.45 1017.41 1017.39 1017.40 1017.44 1017.51 1017.60 1017.71 1017.83 1017.96 1018.10 1018.23 1018.35 1018.47 1018.58 1018.68 1018.77 1018.85 1018.92 1018.97 1019.02 1019.04 1019.07 1019.08 1019.09 1019.11 1019.13 1019.16 1019.20 1019.26 1019.34 1019.43 1019.53 1019.65 1019.79 1019.93 1020.09 1020.26 1020.44 1020.63
1017.37 1017.32 1017.26 1017.19 1017.13 1017.09 1017.06 1017.06 1017.09 1017.14 1017.21 1017.29 1017.40 1017.51 1017.64 1017.78 1017.92 1018.07 1018.23 1018.39 1018.55 1018.71 1018.86 1018.99 1019.11 1019.22 1019.30 1019.37 1019.43 1019.47 1019.50 1019.54 1019.58 1019.62 1019.68 1019.75 1019.83 1019.93 1020.04 1020.16 1020.30 1020.45 1020.61
1017.09 1017.06 1017.00 1016.94 1016.87 1016.80 1016.75 1016.71 1016.69 1016.70 1016.72 1016.76 1016.83 1016.91 1017.03 1017.16 1017.31 1017.49 1017.69 1017.91 1018.14 1018.37 1018.61 1018.83 1019.04 1019.23 1019.39 1019.52 1019.62 1019.70 1019.75 1019.79 1019.83 1019.86 1019.89 1019.93 1019.98 1020.05 1020.13 1020.23 1020.34 1020.45 1020.58
1016.76 1016.75 1016.72 1016.66 1016.59 1016.51 1016.44 1016.38 1016.33 1016.29 1016.27 1016.27 1016.29 1016.34 1016.42 1016.54 1016.69 1016.87 1017.10 1017.35 1017.63 1017.93 1018.24 1018.54 1018.83 1019.09 1019.32 1019.51 1019.66 1019.78 1019.86 1019.92 1019.96 1019.99 1020.02 1020.05 1020.09 1020.14 1020.21 1020.28 1020.37 1020.46 1020.55
1016.35 1016.37 1016.37 1016.33 1016.27 1016.20 1016.13 1016.05 1015.98 1015.91 1015.86 1015.82 1015.80 1015.82 1015.87 1015.95 1016.08 1016.26 1016.49 1016.76 1017.07 1017.40 1017.76 1018.11 1018.46 1018.78 1019.07 1019.32 1019.52 1019.68 1019.81 1019.89 1019.96 1020.00 1020.04 1020.08 1020.12 1020.18 1020.24 1020.30 1020.38 1020.45 1020.52
Thickness
5633 5635 5636 5638 5641 5645 5648 5652 5656 5660 5664 5668 5671 5674 5677 5679 5682 5684 5686 5688 5689 5690 5690 5689 5689 5689 5688 5688 5687 5687 5686 5685 5682 5684 5686 5687 5688 5689 5689 5690 5690 5688 5686
5632 5633 5634 5635 5638 5640 5642 5645 5649 5652 5656 5659 5662 5664 5667 5669 5672 5674 5675 5677 5678 5679 5679 5679 5679 5680 5680 5680 5680 5679 5679 5680 5678 5675 5677 5678 5680 5682 5683 5683 5683 5682 5681
5632 5632 5633 5634 5634 5635 5637 5640 5642 5645 5648 5651 5654 5655 5657 5659 5662 5663 5665 5666 5667 5669 5669 5670 5670 5671 5671 5672 5672 5672 5672 5673 5672 5671 5670 5672 5673 5674 5675 5675 5676 5675 5673
5633 5633 5632 5632 5633 5634 5635 5637 5638 5640 5642 5644 5646 5647 5649 5651 5653 5654 5656 5657 5658 5659 5660 5661 5661 5663 5663 5664 5664 5665 5665 5665 5665 5665 5665 5665 5666 5667 5669 5668 5666 5666 5667
5635 5633 5632 5633 5632 5632 5633 5634 5634 5635 5636 5637 5638 5639 5641 5642 5642 5644 5647 5648 5649 5650 5651 5653 5654 5655 5656 5657 5659 5659 5660 5660 5659 5660 5660 5660 5660 5661 5662 5663 5661 5660 5659
5637 5634 5632 5632 5631 5631 5631 5630 5630 5630 5630 5630 5631 5632 5632 5631 5631 5633 5637 5639 5640 5641 5642 5645 5648 5649 5649 5650 5651 5653 5655 5656 5656 5656 5657 5657 5658 5658 5659 5660 5658 5656 5652
5639 5636 5634 5632 5630 5630 5629 5628 5627 5627 5625 5625 5624 5624 5624 5622 5623 5625 5627 5632 5632 5633 5635 5637 5641 5643 5644 5646 5645 5645 5648 5649 5652 5656 5655 5655 5656 5656 5657 5657 5656 5654 5650
5640 5637 5634 5633 5631 5629 5627 5625 5624 5624 5621 5620 5618 5617 5616 5615 5616 5618 5621 5625 5626 5627 5628 5631 5633 5636 5638 5641 5644 5645 5646 5645 5648 5652 5654 5653 5653 5654 5655 5655 5652 5648 5646
5641 5639 5636 5634 5630 5628 5626 5624 5622 5620 5618 5616 5614 5612 5611 5610 5609 5611 5614 5618 5619 5620 5622 5624 5626 5630 5630 5634 5639 5639 5638 5637 5638 5641 5643 5643 5643 5645 5648 5649 5647 5645 5640
5643 5640 5637 5633 5630 5627 5625 5623 5621 5618 5616 5614 5610 5608 5606 5604 5603 5604 5606 5611 5612 5613 5615 5617 5617 5621 5623 5628 5634 5635 5634 5634 5635 5635 5637 5637 5639 5639 5640 5645 5645 5644 5640
5645 5641 5638 5634 5631 5627 5624 5622 5620 5617 5614 5612 5610 5606 5603 5599 5598 5597 5598 5602 5604 5606 5608 5611 5612 5613 5617 5622 5627 5631 5631 5633 5633 5634 5634 5634 5635 5635 5637 5638 5640 5641 5639
5646 5642 5638 5635 5632 5628 5624 5621 5619 5616 5614 5611 5608 5604 5601 5597 5593 5591 5592 5593 5596 5600 5602 5605 5607 5608 5612 5617 5622 5623 5625 5628 5630 5630 5629 5629 5628 5629 5629 5630 5631 5631 5632
5649 5644 5640 5637 5632 5629 5626 5622 5619 5615 5613 5610 5606 5602 5599 5596 5593 5589 5589 5589 5591 5594 5596 5597 5601 5604 5609 5612 5614 5617 5622 5625 5626 5625 5624 5623 5623 5623 5623 5623 5624 5623 5623
5652 5648 5644 5640 5636 5632 5626 5624 5620 5616 5612 5609 5605 5601 5599 5596 5592 5590 5590 5590 5589 5591 5593 5594 5597 5601 5605 5608 5611 5615 5620 5622 5623 5622 5621 5619 5619 5619 5620 5621 5621 5621 5619
5657 5652 5648 5643 5639 5634 5630 5624 5621 5616 5610 5606 5605 5602 5598 5596 5590 5586 5587 5589 5590 5591 5593 5596 5599 5602 5605 5608 5611 5614 5617 5619 5619 5619 5619 5618 5617 5617 5617 5618 5619 5620 5618
5662 5658 5653 5648 5642 5639 5635 5630 5620 5616 5610 5606 5602 5600 5600 5593 5591 5590 5589 5589 5590 5592 5596 5597 5599 5601 5604 5607 5609 5612 5614 5616 5617 5618 5618 5618 5617 5617 5616 5616 5617 5618 5615
5666 5662 5657 5653 5648 5644 5640 5636 5632 5623 5616 5611 5607 5604 5601 5598 5596 5595 5594 5593 5594 5597 5599 5599 5600 5601 5604 5607 5609 5611 5612 5614 5616 5617 5617 5618 5618 5617 5617 5616 5616 5616 5614
5669 5664 5660 5657 5653 5650 5646 5641 5637 5633 5629 5624 5616 5609 5606 5603 5601 5601 5600 5602 5602 5602 5602 5601 5602 5603 5605 5607 5609 5611 5613 5614 5616 5617 5618 5618 5618 5618 5618 5617 5617 5615 5614
5671 5668 5665 5662 5658 5655 5651 5647 5642 5638 5634 5630 5627 5620 5613 5610 5608 5606 5608 5609 5607 5605 5604 5604 5605 5606 5608 5610 5611 5613 5615 5616 5617 5618 5618 5618 5619 5619 5618 5617 5616 5610 5614
5673 5667 5664 5665 5663 5660 5656 5653 5649 5645 5641 5637 5634 5629 5625 5622 5621 5617 5615 5613 5612 5610 5609 5609 5609 5610 5611 5612 5614 5615 5617 5617 5618 5619 5619 5619 5619 5619 5618 5617 5616 5615 5614
5675 5672 5665 5666 5667 5665 5662 5659 5655 5651 5648 5644 5640 5635 5627 5629 5627 5623 5621 5619 5618 5616 5615 5614 5613 5613 5614 5615 5616 5617 5618 5619 5619 5619 5619 5619 5619 5618 5617 5617 5616 5615 5613
5677 5675 5673 5672 5670 5668 5666 5664 5661 5658 5654 5650 5647 5641 5632 5634 5633 5631 5628 5625 5623 5621 5619 5618 5618 5617 5616 5617 5618 5620 5621 5621 5621 5621 5620 5620 5618 5618 5617 5616 5615 5614 5612
5677 5676 5675 5674 5672 5668 5666 5667 5665 5663 5660 5657 5654 5650 5645 5643 5641 5638 5635 5632 5629 5627 5624 5623 5622 5621 5620 5619 5619 5620 5622 5622 5622 5622 5621 5620 5619 5618 5617 5615 5614 5612 5611
5678 5676 5675 5675 5673 5672 5671 5671 5669 5667 5664 5662 5659 5656 5654 5650 5648 5645 5642 5639 5635 5633 5630 5628 5627 5626 5624 5623 5622 5622 5622 5621 5621 5621 5621 5621 5620 5618 5617 5615 5613 5612 5610
5677 5676 5675 5675 5674 5673 5673 5673 5672 5671 5668 5666 5664 5662 5659 5657 5654 5651 5648 5645 5641 5639 5636 5634 5632 5630 5629 5627 5626 5625 5623 5621 5620 5621 5620 5620 5619 5617 5616 5614 5612 5610 5608
5676 5675 5674 5674 5673 5673 5673 5673 5673 5672 5670 5669 5667 5665 5663 5661 5659 5656 5653 5650 5647 5644 5641 5639 5637 5634 5632 5630 5629 5627 5624 5622 5621 5619 5620 5620 5618 5617 5615 5613 5611 5608 5606